Location: Hanover
(52.3667°N, 9.7167°E)
Time: 03:16:59
(UTC+02:00)

ARIANE 6 FM1 Upper Stage - Pass Details

Date: 26 September 2024
Orbit: 564 x 594 km, 62.0° (Epoch: 06 October)

Event Time Altitude Azimuth Distance (km) Brightness Sun altitude
Rises 20:41:54 0° 236° (SW) 2,783 6.8 -14.8°
Reaches altitude 10° 20:44:08 10° 239° (WSW) 1,893 5.9 -15.1°
Maximum altitude 20:48:24 68° 322° (NW) 632 3.0 -15.8°
Drops below altitude 10° 20:52:44 10° 47° (NE) 1,923 5.1 -16.4°
Enters shadow 20:52:59 - 47° (NE) 2,016 5.2 -16.4°
